Wind_Speed
24 29 28 26 24 21 21 20 20 20 20 19 18 17 15 14 14 15 12 11 11 12 11 12 12 10 11 10 9 9 9 9 7 8 8 10 13 13 12 13 14 15 15
28 29 26 25 22 22 21 21 21 21 21 20 19 18 16 15 15 15 13 12 12 12 11 10 10 10 9 9 9 9 8 7 7 9 12 13 13 13 12 13 14 15 15
27 27 25 24 22 22 22 21 21 22 21 21 20 19 17 16 16 15 13 12 12 12 10 10 9 9 9 9 8 8 8 8 8 10 11 11 13 12 13 13 14 15 15
25 26 24 23 23 22 21 21 21 22 21 21 20 19 18 16 16 15 13 12 11 12 11 10 9 10 9 10 10 9 9 9 10 9 8 9 11 11 13 13 13 14 15
26 25 24 23 22 21 20 20 22 22 21 21 21 20 19 17 16 15 14 12 11 12 11 11 10 10 11 10 10 9 9 9 11 9 7 8 9 12 13 13 14 14 14
28 25 23 22 21 20 20 20 21 22 21 21 21 21 20 17 16 15 14 12 12 12 11 11 11 11 11 11 11 9 9 11 11 9 8 8 7 13 13 12 12 12 11
30 26 23 21 21 20 21 21 22 22 22 21 21 21 20 18 16 14 13 12 11 11 11 12 10 11 10 11 11 9 11 11 8 8 8 8 9 10 10 10 11 13 14
29 26 24 23 22 21 22 22 22 22 21 21 20 20 20 18 16 14 13 13 12 11 11 12 11 11 11 12 11 10 10 9 8 6 9 7 9 10 9 9 12 13 10
27 26 25 24 23 22 22 23 22 22 21 21 20 19 19 18 16 14 13 13 12 11 11 12 11 8 11 12 12 12 11 10 9 5 9 7 8 9 10 11 12 11 9
30 27 25 25 25 25 24 23 22 22 21 21 20 19 19 18 16 14 14 13 13 13 12 13 12 8 7 13 13 13 13 13 10 8 7 9 8 10 9 12 13 12 9
32 30 27 25 26 27 26 25 23 22 21 21 21 20 20 19 18 17 15 15 15 14 14 13 12 11 7 13 15 13 13 13 12 10 7 11 9 12 13 16 15 13 10
37 33 30 28 26 27 27 26 26 24 24 23 22 22 21 20 19 18 17 17 17 16 15 15 13 13 10 12 13 15 14 14 13 14 11 15 11 14 15 15 15 14 12
39 36 34 31 30 28 28 28 27 27 26 24 23 22 21 20 20 20 19 20 20 19 18 17 17 15 14 13 13 15 16 15 15 14 13 11 11 15 16 16 13 14 14
42 38 37 34 32 31 29 28 27 27 26 24 23 23 22 22 22 21 21 21 21 21 20 19 18 16 15 14 13 14 17 15 16 16 15 13 14 16 17 15 13 13 14
42 40 37 37 35 33 33 31 29 27 27 25 24 24 24 23 22 22 22 22 22 22 21 20 19 18 17 17 16 15 16 16 15 18 16 14 15 16 19 16 14 13 14
38 37 38 37 37 37 35 34 32 30 28 27 26 25 24 23 22 22 22 24 24 23 21 20 18 17 18 19 18 17 17 18 17 18 19 18 17 16 18 19 17 15 15
38 35 35 35 37 37 37 36 35 33 32 31 30 28 26 24 24 23 23 24 24 23 22 20 19 19 19 20 20 19 19 20 21 21 21 22 20 18 17 19 25 23 19
40 40 34 34 32 35 39 39 38 36 34 33 31 30 28 26 25 24 24 24 23 22 22 22 21 21 21 22 21 20 20 20 23 24 25 26 28 26 22 18 24 20 21
46 43 42 37 34 34 34 37 38 36 35 32 29 28 27 25 23 23 25 24 22 22 24 23 23 23 22 22 22 21 20 21 19 21 25 27 30 30 29 24 13 17 21
47 48 44 41 37 35 37 36 35 35 34 31 28 28 26 25 23 22 23 24 24 25 25 26 25 24 23 21 21 22 22 23 22 22 25 27 30 31 30 26 22 20 21
32 34 44 39 33 36 42 43 41 39 36 32 29 27 26 25 24 23 23 23 26 27 27 26 25 25 23 22 20 23 24 24 25 25 24 23 28 30 27 23 23 22 23
35 36 36 38 35 36 41 42 44 43 38 35 28 23 24 27 25 24 23 23 26 28 28 28 27 28 27 25 23 24 20 24 26 27 28 26 28 29 26 29 26 23 24
33 39 41 38 36 35 41 46 47 43 42 32 27 26 26 25 27 26 25 23 24 27 28 31 32 31 30 28 28 24 11 17 19 28 26 29 28 29 28 33 29 25 25
34 38 41 32 36 40 42 43 42 42 39 35 30 26 25 26 28 28 28 25 25 26 26 31 33 32 32 32 29 31 31 24 13 15 20 28 29 33 32 33 31 29 28
22 25 25 25 27 31 33 30 30 27 28 25 27 27 26 25 29 31 30 27 29 31 30 29 33 37 36 35 32 32 30 32 31 20 18 24 26 31 34 38 33 31 29
38 35 33 30 27 23 23 24 26 23 31 33 31 27 27 28 28 30 32 29 27 30 32 31 30 36 39 35 34 30 34 31 36 31 22 20 25 31 36 38 35 34 31
Wind_Direction
178 175 168 169 172 173 175 175 173 171 168 164 158 151 143 140 141 138 136 132 130 129 138 138 136 132 125 123 124 125 127 121 127 117 116 124 128 129 123 128 129 128 128
167 171 169 171 177 178 178 177 175 173 169 166 161 156 149 145 141 137 136 136 136 139 147 141 138 132 126 120 122 123 123 125 128 140 131 138 136 132 129 139 137 134 135
169 168 172 175 181 182 180 178 176 174 170 166 163 159 153 148 145 139 139 140 143 144 144 142 134 131 128 125 123 124 127 129 126 128 136 139 134 138 138 140 139 137 137
167 170 173 177 182 184 180 179 177 176 172 168 165 163 158 153 149 143 145 145 146 144 146 146 141 128 126 126 125 128 125 122 123 135 145 145 141 144 143 142 140 142 144
167 168 171 179 183 185 181 179 177 177 175 171 169 167 163 157 154 154 152 151 146 145 145 143 134 128 128 127 130 132 128 127 127 135 142 150 146 141 144 145 146 147 147
164 167 175 182 182 180 177 175 175 175 176 175 173 170 168 163 160 159 158 156 148 145 142 139 135 134 134 138 141 143 138 136 139 141 148 155 150 149 152 151 151 151 152
167 171 176 178 179 172 173 172 172 173 175 177 176 174 172 168 167 164 165 159 155 158 154 144 137 146 145 146 153 160 154 155 158 154 149 153 165 161 158 160 165 160 154
169 171 173 172 171 170 170 170 171 172 175 178 178 177 175 175 174 173 168 171 171 174 169 160 145 150 155 158 168 176 174 169 168 179 172 176 171 168 173 172 167 169 167
173 171 169 167 166 170 170 172 173 173 175 178 179 179 179 182 183 182 177 181 185 189 181 179 172 142 162 168 181 189 188 191 196 206 188 185 169 188 184 178 183 190 195
174 172 170 168 168 172 172 176 177 176 178 180 181 181 185 188 192 192 191 193 196 201 195 191 191 183 166 182 189 197 199 209 204 191 207 211 200 192 189 203 199 197 201
179 175 172 174 173 174 174 177 180 181 183 185 185 186 190 194 199 200 201 203 205 209 208 202 203 200 184 192 196 205 212 219 216 208 214 221 214 199 201 200 197 198 209
185 180 180 177 181 179 178 180 182 185 187 190 192 194 198 201 205 209 207 207 211 215 216 213 212 213 206 203 200 209 222 227 226 216 223 217 231 207 199 200 202 206 212
190 187 187 185 183 185 185 186 187 189 192 194 197 201 203 207 208 210 210 211 212 216 219 220 219 221 218 214 215 226 225 229 234 230 224 231 219 208 202 205 221 214 211
193 194 193 193 192 191 191 194 196 199 200 203 205 206 207 210 212 215 216 216 217 220 222 227 230 229 226 224 228 237 227 232 240 234 230 232 234 210 205 218 233 223 217
198 199 199 199 200 203 199 200 203 206 207 207 210 211 214 217 220 219 220 220 221 222 226 229 235 235 236 235 236 241 238 240 244 236 233 230 225 229 221 224 229 230 226
205 206 207 208 209 210 211 209 210 211 214 214 215 216 217 221 224 224 223 224 223 224 227 229 235 240 242 241 243 245 243 242 245 241 239 231 225 227 229 232 231 231 235
213 216 213 216 218 218 219 219 218 220 218 221 221 221 221 223 225 226 226 227 226 225 225 227 231 236 240 243 245 249 245 244 244 244 236 231 228 229 239 239 240 233 228
222 220 217 218 221 224 225 224 225 224 224 223 225 224 224 223 225 228 227 226 226 225 226 227 232 234 241 244 246 248 246 246 244 245 237 237 239 242 242 250 251 223 217
226 225 221 221 226 228 229 231 230 229 227 226 226 224 222 220 221 229 230 228 226 228 231 232 234 237 240 243 241 244 247 251 247 240 240 241 243 244 249 255 243 215 214
230 227 229 228 230 234 234 231 229 229 228 229 229 228 226 226 226 232 231 231 230 231 234 235 236 236 240 243 242 247 252 253 250 244 240 247 246 246 252 250 221 224 217
226 221 222 225 228 227 231 230 228 226 226 228 229 230 230 233 234 237 236 235 233 233 237 239 238 237 239 238 242 248 254 257 257 250 251 251 245 248 251 230 218 214 212
238 239 227 226 231 228 230 232 232 229 227 229 231 236 241 237 239 240 242 242 237 233 235 237 237 236 236 234 235 243 251 255 248 251 253 257 248 248 242 226 216 215 213
233 238 238 232 232 233 232 231 230 228 226 222 227 236 241 244 242 243 243 247 246 245 243 243 240 240 239 237 234 232 227 239 249 259 252 257 245 242 239 224 216 214 212
235 229 235 227 221 220 224 226 227 230 222 223 232 243 246 248 250 248 246 251 254 250 247 247 246 246 243 240 236 238 239 252 240 248 257 259 247 247 235 224 216 215 210
191 192 189 189 196 203 213 217 223 224 230 228 234 240 244 250 252 251 252 248 247 247 249 249 252 244 242 241 238 240 239 245 252 247 269 249 246 248 243 235 214 213 210
118 126 132 137 133 149 181 196 213 220 232 224 231 236 240 248 253 252 251 248 248 249 252 252 260 253 244 243 244 245 244 244 244 243 245 248 256 243 232 227 213 215 212
Height
1478 1482 1485 1488 1491 1492 1495 1498 1500 1501 1503 1504 1506 1507 1509 1511 1513 1515 1517 1519 1521 1523 1525 1526 1527 1528 1529 1531 1532 1533 1534 1535 1535 1536 1537 1539 1539 1540 1541 1542 1544 1544 1545
1476 1480 1483 1487 1490 1492 1494 1497 1499 1501 1503 1504 1506 1508 1510 1512 1514 1515 1518 1520 1523 1524 1526 1528 1529 1530 1531 1532 1533 1533 1535 1536 1537 1538 1539 1540 1540 1541 1542 1544 1545 1546 1547
1475 1478 1483 1486 1489 1492 1494 1495 1498 1501 1502 1505 1507 1509 1510 1512 1515 1517 1519 1521 1523 1525 1527 1529 1530 1531 1532 1532 1534 1535 1536 1537 1537 1537 1539 1541 1541 1543 1544 1546 1546 1547 1549
1473 1477 1482 1486 1488 1491 1493 1494 1497 1500 1502 1505 1507 1509 1511 1513 1516 1518 1520 1523 1525 1526 1527 1529 1530 1532 1533 1534 1535 1536 1537 1538 1539 1540 1541 1542 1543 1544 1545 1547 1548 1550 1551
1473 1476 1481 1485 1488 1491 1493 1494 1496 1499 1502 1504 1507 1510 1512 1514 1517 1519 1521 1523 1525 1527 1528 1530 1532 1533 1535 1535 1536 1537 1538 1539 1540 1541 1544 1545 1545 1545 1547 1548 1550 1552 1553
1473 1476 1480 1484 1487 1490 1492 1494 1496 1498 1501 1504 1507 1509 1512 1515 1517 1520 1522 1524 1526 1528 1529 1531 1533 1534 1535 1536 1537 1538 1540 1541 1542 1543 1544 1546 1547 1547 1548 1550 1551 1553 1555
1471 1476 1479 1483 1486 1488 1491 1493 1495 1497 1500 1504 1507 1510 1512 1515 1517 1520 1523 1525 1526 1529 1530 1532 1534 1535 1536 1537 1538 1539 1540 1542 1544 1544 1545 1546 1548 1549 1550 1551 1553 1554 1555
1469 1474 1477 1481 1484 1487 1490 1493 1495 1497 1500 1503 1507 1510 1512 1515 1517 1520 1522 1524 1526 1528 1530 1532 1534 1536 1537 1538 1539 1540 1541 1542 1544 1545 1546 1547 1548 1550 1551 1552 1554 1555 1556
1470 1473 1475 1478 1482 1486 1490 1493 1495 1497 1499 1502 1506 1509 1512 1515 1517 1520 1522 1524 1526 1528 1530 1532 1534 1536 1537 1538 1540 1540 1541 1542 1544 1545 1547 1548 1549 1550 1551 1553 1555 1556 1557
1468 1471 1475 1477 1480 1485 1488 1492 1495 1497 1499 1502 1505 1509 1512 1514 1517 1519 1522 1524 1525 1527 1530 1532 1534 1536 1537 1538 1539 1540 1541 1542 1544 1546 1547 1548 1548 1549 1548 1551 1554 1556 1557
1467 1468 1471 1476 1479 1482 1486 1490 1494 1496 1499 1501 1504 1507 1510 1512 1515 1518 1521 1523 1525 1527 1529 1531 1533 1536 1537 1537 1538 1540 1541 1542 1543 1545 1546 1548 1549 1548 1549 1550 1552 1555 1557
1464 1466 1468 1470 1478 1481 1484 1487 1491 1494 1497 1499 1502 1505 1508 1511 1513 1516 1519 1521 1524 1526 1528 1530 1532 1534 1536 1536 1538 1539 1540 1542 1543 1544 1545 1546 1548 1549 1548 1550 1552 1554 1556
1459 1463 1466 1469 1471 1478 1482 1485 1488 1491 1494 1497 1500 1503 1506 1509 1511 1514 1516 1519 1521 1524 1525 1528 1530 1532 1534 1535 1536 1537 1539 1541 1543 1543 1544 1545 1547 1548 1549 1551 1552 1553 1555
1455 1459 1463 1467 1470 1473 1478 1482 1485 1488 1492 1494 1497 1500 1503 1505 1508 1510 1513 1516 1518 1521 1523 1525 1528 1530 1532 1533 1534 1535 1537 1539 1541 1542 1543 1545 1546 1547 1549 1550 1551 1552 1553
1453 1456 1461 1463 1468 1471 1474 1477 1482 1486 1489 1492 1495 1497 1500 1502 1504 1507 1510 1513 1515 1518 1520 1522 1525 1527 1529 1531 1532 1533 1534 1536 1538 1540 1541 1543 1545 1546 1547 1548 1549 1550 1551
1452 1455 1458 1461 1464 1467 1471 1474 1477 1481 1485 1489 1491 1494 1496 1498 1501 1503 1506 1509 1511 1515 1517 1519 1522 1524 1527 1528 1530 1531 1532 1533 1535 1537 1538 1540 1541 1543 1544 1546 1547 1548 1549
1448 1452 1454 1457 1461 1465 1468 1472 1475 1478 1481 1484 1487 1490 1493 1495 1498 1500 1503 1505 1508 1511 1515 1517 1519 1521 1523 1525 1527 1528 1529 1531 1532 1534 1536 1537 1539 1541 1542 1543 1544 1544 1547
1446 1447 1451 1453 1456 1461 1464 1467 1471 1474 1477 1480 1483 1487 1489 1492 1494 1496 1499 1502 1505 1509 1511 1513 1515 1517 1519 1522 1524 1525 1526 1527 1529 1530 1532 1534 1536 1538 1539 1540 1540 1541 1546
1440 1444 1446 1448 1451 1456 1460 1463 1467 1471 1474 1477 1480 1483 1486 1489 1491 1493 1496 1499 1503 1505 1507 1510 1512 1514 1516 1518 1521 1522 1523 1524 1525 1527 1528 1530 1532 1534 1535 1535 1536 1540 1543
1434 1438 1442 1444 1448 1451 1455 1458 1462 1466 1470 1474 1477 1480 1484 1486 1489 1490 1493 1496 1499 1501 1504 1506 1508 1510 1513 1515 1518 1519 1520 1521 1522 1523 1525 1526 1528 1529 1530 1532 1531 1536 1540
1428 1431 1435 1438 1441 1444 1446 1450 1455 1458 1463 1468 1471 1476 1480 1483 1485 1487 1490 1493 1495 1496 1499 1502 1505 1507 1510 1512 1516 1517 1517 1518 1519 1519 1520 1521 1522 1524 1526 1528 1529 1533 1537
1419 1422 1425 1429 1434 1436 1439 1443 1446 1452 1456 1461 1468 1472 1474 1478 1481 1483 1485 1488 1490 1493 1495 1497 1500 1502 1505 1507 1511 1513 1513 1514 1513 1515 1516 1516 1517 1519 1521 1524 1526 1529 1534
1410 1412 1416 1421 1427 1432 1433 1436 1440 1446 1452 1458 1463 1467 1468 1473 1476 1478 1480 1483 1486 1488 1490 1493 1494 1496 1500 1502 1505 1509 1509 1506 1508 1509 1510 1511 1512 1514 1516 1518 1521 1526 1530
1400 1403 1407 1413 1419 1423 1426 1431 1434 1439 1447 1453 1459 1462 1465 1469 1471 1472 1474 1477 1481 1483 1485 1488 1489 1491 1494 1496 1500 1501 1503 1504 1504 1505 1505 1506 1508 1509 1511 1513 1518 1522 1526
1393 1396 1401 1407 1412 1418 1423 1430 1431 1437 1448 1449 1456 1459 1461 1463 1465 1468 1470 1472 1474 1477 1479 1481 1483 1485 1487 1490 1492 1495 1498 1501 1502 1501 1500 1501 1502 1503 1504 1507 1511 1517 1522
1392 1397 1401 1406 1413 1417 1420 1424 1428 1434 1443 1447 1448 1450 1453 1457 1460 1463 1464 1466 1468 1470 1472 1474 1476 1478 1480 1483 1486 1488 1491 1494 1495 1496 1499 1495 1497 1498 1499 1499 1506 1513 1518